GEC8392 EDDF-UACC

Flight info

Callsign GEC8392
Flight time N/A
Altitude 31000
Route SULUS6S SULUS Z650 NOGRA DCT VEMUT DCT PEPIK DCT NORAH DCT DINRO DCT UDROS UM859 BAMUP/N0479F330 UM859 KARDE UN644 ROLIN N644 ODILI DCT BARAD M747 SUBUT T916 LEYLA N161 GASBI/K0882F330 N161 MASAV N55 OGANU P574 VETUB VETUB2H
Aircraft MD11/H-SDE1E2E3FGHIJ2J3J4J5M1RWXY/LB1D1

Departure

Time N/A
Airport Frankfurt Main Airport (EDDF)

Arrival

Time 2026-05-04 20:02
Airport Nursultan Nazarbayev International Airport (UACC)
Time Latitude Longitude Altitude Speed Heading
2026-05-04 17:21 41.24246 45.53259 32828 ft 499 kts 114°
2026-05-04 17:22 41.22002 45.61989 32832 ft 500 kts 114°
2026-05-04 17:23 41.17336 45.79378 32845 ft 500 kts 115°
2026-05-04 17:24 41.13863 45.92456 32836 ft 501 kts 115°
2026-05-04 17:25 41.09255 46.09879 32803 ft 502 kts 115°
2026-05-04 17:26 41.04644 46.27423 32787 ft 504 kts 115°
2026-05-04 17:27 40.98689 46.49307 32787 ft 504 kts 115°
2026-05-04 17:28 40.94055 46.66614 32780 ft 505 kts 115°
2026-05-04 17:29 40.91427 46.94040 32797 ft 529 kts 76°
2026-05-04 17:31 40.96315 47.17433 32781 ft 529 kts 80°
2026-05-04 17:32 41.00496 47.41092 32829 ft 530 kts 79°
2026-05-04 17:33 41.03928 47.60081 32856 ft 530 kts 78°
2026-05-04 17:34 41.07407 47.79089 32908 ft 529 kts 79°
2026-05-04 17:35 41.13047 48.02253 33014 ft 533 kts 58°
2026-05-04 17:36 41.17436 48.10178 33035 ft 534 kts 52°
2026-05-04 17:36 41.21930 48.18010 33049 ft 534 kts 53°
2026-05-04 17:37 41.26311 48.26001 33059 ft 532 kts 54°
2026-05-04 17:37 41.30639 48.33985 33043 ft 531 kts 54°
2026-05-04 17:38 41.34993 48.41967 32977 ft 531 kts 54°
2026-05-04 17:38 41.39348 48.49900 32927 ft 531 kts 53°
2026-05-04 17:39 41.45940 48.61799 32891 ft 530 kts 52°
2026-05-04 17:39 41.50321 48.69607 32877 ft 529 kts 53°
2026-05-04 17:40 41.54666 48.77540 32870 ft 530 kts 56°
2026-05-04 17:40 41.58712 48.85786 32867 ft 530 kts 57°
2026-05-04 17:41 41.62729 48.93986 32867 ft 530 kts 57°
2026-05-04 17:41 41.66863 49.02204 32865 ft 530 kts 56°
2026-05-04 17:42 41.70938 49.10372 32858 ft 530 kts 57°
2026-05-04 17:42 41.75061 49.18567 32862 ft 531 kts 56°
2026-05-04 17:43 41.79181 49.26779 32852 ft 530 kts 56°
2026-05-04 17:43 41.83364 49.34944 32848 ft 530 kts 54°
2026-05-04 17:44 41.87743 49.42914 32856 ft 530 kts 54°
2026-05-04 17:44 41.92063 49.50911 32858 ft 530 kts 54°
2026-05-04 17:45 41.96356 49.58931 32858 ft 529 kts 54°
2026-05-04 17:45 42.00677 49.66987 32851 ft 528 kts 55°
2026-05-04 17:46 42.04961 49.74952 32852 ft 528 kts 54°
2026-05-04 17:46 42.09300 49.83000 32852 ft 527 kts 54°
2026-05-04 17:47 42.13603 49.90974 32846 ft 526 kts 54°
2026-05-04 17:47 42.17911 49.98947 32851 ft 526 kts 54°
2026-05-04 17:48 42.22200 50.06859 32857 ft 525 kts 54°
2026-05-04 17:48 42.26524 50.14832 32859 ft 524 kts 54°
2026-05-04 17:49 42.30830 50.22757 32862 ft 525 kts 54°
2026-05-04 17:49 42.35088 50.30792 32865 ft 524 kts 55°
2026-05-04 17:50 42.39283 50.38770 32867 ft 524 kts 54°
2026-05-04 17:50 42.43546 50.46775 32872 ft 523 kts 54°
2026-05-04 17:51 42.47938 50.54637 32868 ft 523 kts 52°
2026-05-04 17:51 42.52388 50.62407 32870 ft 522 kts 52°
2026-05-04 17:52 42.56788 50.70225 32863 ft 522 kts 53°
2026-05-04 17:52 42.61201 50.78091 32862 ft 522 kts 53°
2026-05-04 17:53 42.65601 50.85911 32862 ft 521 kts 53°
2026-05-04 17:53 42.69986 50.93688 32863 ft 521 kts 53°
2026-05-04 17:54 42.74400 51.01506 32864 ft 521 kts 53°
2026-05-04 17:54 42.78820 51.09322 32870 ft 521 kts 53°
2026-05-04 17:55 42.83233 51.17115 32868 ft 521 kts 52°
2026-05-04 17:55 42.87667 51.24923 32871 ft 520 kts 52°
2026-05-04 17:56 42.92106 51.32737 32873 ft 520 kts 52°
2026-05-04 17:56 42.96531 51.40545 32873 ft 520 kts 53°
2026-05-04 17:57 43.00841 51.48454 32878 ft 519 kts 54°
2026-05-04 17:57 43.05148 51.56411 32884 ft 519 kts 53°
2026-05-04 17:58 43.09460 51.64331 32875 ft 519 kts 53°
2026-05-04 17:58 43.13771 51.72209 32874 ft 518 kts 54°
2026-05-04 17:59 43.18166 51.80238 32867 ft 518 kts 54°
2026-05-04 18:00 43.24806 51.92355 32876 ft 517 kts 54°
2026-05-04 18:00 43.29148 52.00268 32877 ft 517 kts 54°
2026-05-04 18:01 43.33480 52.08142 32879 ft 517 kts 53°
2026-05-04 18:01 43.37854 52.16087 32876 ft 516 kts 53°
2026-05-04 18:02 43.44350 52.27862 32876 ft 516 kts 53°
2026-05-04 18:02 43.48651 52.35809 32876 ft 515 kts 54°
2026-05-04 18:03 43.52929 52.43869 32875 ft 515 kts 54°
2026-05-04 18:03 43.57188 52.51803 32870 ft 514 kts 54°
2026-05-04 18:04 43.61438 52.59735 32873 ft 513 kts 54°
2026-05-04 18:05 43.67828 52.71640 32861 ft 512 kts 55°
2026-05-04 18:05 43.71994 52.79614 32866 ft 512 kts 55°
2026-05-04 18:06 43.78434 52.91859 32860 ft 511 kts 55°
2026-05-04 18:06 43.82706 52.99979 32863 ft 511 kts 55°
2026-05-04 18:07 43.86991 53.08082 32851 ft 510 kts 54°
2026-05-04 18:07 43.91192 53.16099 32851 ft 510 kts 55°
2026-05-04 18:08 43.95247 53.24083 32838 ft 509 kts 56°
2026-05-04 18:08 43.99395 53.32250 32835 ft 509 kts 55°
2026-05-04 18:09 44.07267 53.47658 32835 ft 509 kts 55°
2026-05-04 18:10 44.11367 53.55663 32834 ft 508 kts 54°
2026-05-04 18:10 44.15498 53.63715 32835 ft 509 kts 54°
2026-05-04 18:11 44.19673 53.71845 32833 ft 508 kts 55°
2026-05-04 18:11 44.23862 53.79984 32831 ft 508 kts 54°
2026-05-04 18:12 44.28082 53.88169 32836 ft 508 kts 54°
2026-05-04 18:12 44.32294 53.96332 32836 ft 508 kts 54°
2026-05-04 18:13 44.36426 54.04318 32834 ft 508 kts 54°
2026-05-04 18:14 44.42527 54.16483 32833 ft 507 kts 55°
2026-05-04 18:14 44.46558 54.24608 32831 ft 507 kts 54°
2026-05-04 18:15 44.54696 54.40866 32830 ft 507 kts 54°
2026-05-04 18:16 44.58775 54.48984 32828 ft 507 kts 54°
2026-05-04 18:16 44.62850 54.57109 32828 ft 507 kts 54°
2026-05-04 18:17 44.69831 54.68301 32831 ft 505 kts 41°
2026-05-04 18:18 44.77667 54.78239 32829 ft 505 kts 41°
2026-05-04 18:18 44.82854 54.84935 32827 ft 505 kts 41°
2026-05-04 18:19 44.90617 54.95016 32832 ft 505 kts 41°
2026-05-04 18:19 44.95776 55.01698 32837 ft 505 kts 41°
2026-05-04 18:20 45.00938 55.08364 32845 ft 505 kts 41°
2026-05-04 18:20 45.06124 55.15052 32844 ft 505 kts 41°
2026-05-04 18:21 45.11415 55.21692 32851 ft 504 kts 38°
2026-05-04 18:21 45.16860 55.27962 32856 ft 504 kts 38°
2026-05-04 18:22 45.22217 55.34270 32866 ft 504 kts 39°
2026-05-04 18:22 45.27573 55.40654 32867 ft 503 kts 38°
2026-05-04 18:23 45.32955 55.47071 32871 ft 503 kts 38°
2026-05-04 18:23 45.38322 55.53453 32878 ft 503 kts 38°
2026-05-04 18:24 45.43694 55.59829 32885 ft 503 kts 38°
2026-05-04 18:24 45.49052 55.66183 32887 ft 502 kts 39°
2026-05-04 18:25 45.54437 55.72564 32889 ft 501 kts 39°
2026-05-04 18:25 45.59833 55.78945 32895 ft 501 kts 39°
2026-05-04 18:26 45.64446 55.84394 32898 ft 501 kts 39°
2026-05-04 18:26 45.69792 55.90713 32904 ft 500 kts 39°
2026-05-04 18:27 45.75148 55.97060 32903 ft 500 kts 39°
2026-05-04 18:27 45.80422 56.03537 32909 ft 499 kts 40°
2026-05-04 18:28 45.83067 56.06803 33140 ft 501 kts 40°
2026-05-04 18:28 45.85717 56.10071 33811 ft 498 kts 40°
2026-05-04 18:28 45.88357 56.13316 34311 ft 498 kts 39°
2026-05-04 18:28 45.91000 56.16556 34763 ft 498 kts 39°
2026-05-04 18:29 45.93622 56.19766 34884 ft 499 kts 39°
2026-05-04 18:29 45.96275 56.23009 34900 ft 496 kts 39°
2026-05-04 18:29 46.01486 56.29377 35078 ft 495 kts 39°
2026-05-04 18:30 46.06727 56.35790 35781 ft 496 kts 39°
2026-05-04 18:30 46.09370 56.39022 36104 ft 496 kts 39°
2026-05-04 18:30 46.12002 56.42238 36475 ft 496 kts 39°
2026-05-04 18:31 46.14636 56.45448 36850 ft 496 kts 39°
2026-05-04 18:31 46.19916 56.51893 36914 ft 494 kts 39°
2026-05-04 18:32 46.25161 56.58283 36925 ft 494 kts 38°
2026-05-04 18:32 46.30399 56.64665 36915 ft 494 kts 38°
2026-05-04 18:33 46.35681 56.71096 36915 ft 494 kts 39°
2026-05-04 18:33 46.40944 56.77605 36919 ft 495 kts 40°
2026-05-04 18:34 46.46091 56.84154 36910 ft 495 kts 43°
2026-05-04 18:34 46.50537 56.91833 36929 ft 495 kts 57°
2026-05-04 18:35 46.54004 57.00418 36922 ft 496 kts 60°
2026-05-04 18:35 46.57384 57.09217 36922 ft 496 kts 60°
2026-05-04 18:36 46.60846 57.17898 36928 ft 497 kts 59°
2026-05-04 18:36 46.64323 57.26612 36931 ft 496 kts 59°
2026-05-04 18:37 46.67787 57.35287 36940 ft 496 kts 59°
2026-05-04 18:37 46.71267 57.43967 36948 ft 496 kts 59°
2026-05-04 18:38 46.74745 57.52623 36963 ft 496 kts 59°
2026-05-04 18:38 46.78230 57.61292 36964 ft 496 kts 59°
2026-05-04 18:39 46.81742 57.70010 36963 ft 496 kts 59°
2026-05-04 18:39 46.85280 57.78768 36972 ft 496 kts 59°
2026-05-04 18:40 46.88776 57.87404 36986 ft 496 kts 59°
2026-05-04 18:40 46.92293 57.96090 36985 ft 496 kts 59°
2026-05-04 18:41 46.95750 58.04792 36989 ft 496 kts 61°
2026-05-04 18:41 46.99097 58.13625 36982 ft 496 kts 61°
2026-05-04 18:42 47.02451 58.22455 36979 ft 495 kts 61°
2026-05-04 18:42 47.05819 58.31247 36978 ft 495 kts 60°
2026-05-04 18:43 47.09218 58.40077 36977 ft 496 kts 60°
2026-05-04 18:43 47.12593 58.48834 36975 ft 495 kts 60°
2026-05-04 18:44 47.15980 58.57610 36972 ft 495 kts 60°
2026-05-04 18:44 47.19392 58.66445 36974 ft 495 kts 61°
2026-05-04 18:45 47.22829 58.75321 36975 ft 495 kts 60°
2026-05-04 18:45 47.26239 58.84098 36975 ft 496 kts 60°
2026-05-04 18:46 47.29664 58.92899 36980 ft 496 kts 60°
2026-05-04 18:46 47.33096 59.01699 36978 ft 496 kts 60°
2026-05-04 18:47 47.36485 59.10540 36990 ft 496 kts 62°
2026-05-04 18:47 47.39752 59.19508 36993 ft 496 kts 62°
2026-05-04 18:48 47.43016 59.28460 36994 ft 496 kts 62°
2026-05-04 18:48 47.46324 59.37448 36987 ft 496 kts 61°
2026-05-04 18:49 47.49627 59.46384 36994 ft 497 kts 61°
2026-05-04 18:49 47.52948 59.55362 36993 ft 497 kts 61°
2026-05-04 18:50 47.56288 59.64375 36998 ft 497 kts 60°
2026-05-04 18:50 47.59634 59.73387 36993 ft 497 kts 61°
2026-05-04 18:51 47.62968 59.82350 37006 ft 497 kts 61°
2026-05-04 18:51 47.66321 59.91333 37002 ft 498 kts 61°
2026-05-04 18:52 47.69687 60.00329 37005 ft 498 kts 61°
2026-05-04 18:52 47.72980 60.09110 37003 ft 497 kts 60°
2026-05-04 18:53 47.76316 60.18146 36993 ft 498 kts 62°
2026-05-04 18:53 47.79493 60.27262 36993 ft 498 kts 62°
2026-05-04 18:54 47.82687 60.36427 36990 ft 497 kts 62°
2026-05-04 18:54 47.85892 60.45527 36994 ft 497 kts 62°
2026-05-04 18:55 47.89103 60.54609 36995 ft 496 kts 61°
2026-05-04 18:55 47.93964 60.68325 36986 ft 496 kts 62°
2026-05-04 18:56 47.97213 60.77474 36981 ft 496 kts 62°
2026-05-04 18:56 48.00440 60.86543 36988 ft 495 kts 62°
2026-05-04 18:57 48.03674 60.95611 36987 ft 495 kts 61°
2026-05-04 18:57 48.06914 61.04657 36987 ft 495 kts 61°
2026-05-04 18:58 48.10188 61.13789 36994 ft 495 kts 61°
2026-05-04 18:58 48.13430 61.22799 36989 ft 495 kts 61°
2026-05-04 18:59 48.16586 61.31977 36990 ft 495 kts 63°
2026-05-04 18:59 48.19647 61.41178 36992 ft 495 kts 63°
2026-05-04 19:00 48.22743 61.50416 36996 ft 495 kts 62°
2026-05-04 19:00 48.25855 61.59623 36997 ft 495 kts 62°
2026-05-04 19:01 48.28996 61.68879 36995 ft 495 kts 63°
2026-05-04 19:01 48.32132 61.78115 36994 ft 496 kts 62°
2026-05-04 19:02 48.35260 61.87308 36992 ft 496 kts 62°
2026-05-04 19:02 48.38397 61.96508 37000 ft 496 kts 62°
2026-05-04 19:03 48.41556 62.05748 36998 ft 496 kts 62°
2026-05-04 19:03 48.44692 62.14887 37001 ft 496 kts 62°
2026-05-04 19:04 48.47877 62.24152 37001 ft 496 kts 62°
2026-05-04 19:04 48.51032 62.33299 37004 ft 496 kts 62°
2026-05-04 19:05 48.54134 62.42569 37001 ft 497 kts 63°
2026-05-04 19:05 48.57184 62.51900 37001 ft 497 kts 62°
2026-05-04 19:06 48.60279 62.61178 37006 ft 497 kts 62°
2026-05-04 19:06 48.63379 62.70558 37004 ft 497 kts 63°
2026-05-04 19:07 48.66277 62.79980 37011 ft 497 kts 65°
2026-05-04 19:07 48.69064 62.89531 37015 ft 497 kts 66°
2026-05-04 19:08 48.71865 62.99124 37011 ft 497 kts 65°
2026-05-04 19:08 48.74679 63.08644 37018 ft 497 kts 65°
2026-05-04 19:09 48.77496 63.18161 37021 ft 497 kts 65°
2026-05-04 19:09 48.80329 63.27701 37020 ft 497 kts 65°
2026-05-04 19:10 48.83153 63.37174 37020 ft 497 kts 65°
2026-05-04 19:10 48.86005 63.46727 37020 ft 497 kts 64°
2026-05-04 19:11 48.88915 63.56220 37023 ft 497 kts 63°
2026-05-04 19:11 48.92006 63.65646 37021 ft 497 kts 63°
2026-05-04 19:12 48.96591 63.79798 37030 ft 498 kts 63°
2026-05-04 19:13 48.99620 63.89166 37027 ft 498 kts 63°
2026-05-04 19:13 49.02698 63.98648 37030 ft 498 kts 63°
2026-05-04 19:14 49.05767 64.08082 37038 ft 498 kts 63°
2026-05-04 19:14 49.08824 64.17456 37043 ft 498 kts 62°
2026-05-04 19:15 49.11924 64.26930 37043 ft 498 kts 62°
2026-05-04 19:15 49.15031 64.36409 37046 ft 499 kts 62°
2026-05-04 19:16 49.18150 64.45897 37047 ft 500 kts 62°
2026-05-04 19:16 49.21278 64.55374 37048 ft 500 kts 62°
2026-05-04 19:17 49.24416 64.64864 37046 ft 500 kts 61°
2026-05-04 19:17 49.27580 64.74397 37044 ft 500 kts 62°
2026-05-04 19:18 49.30618 64.83961 37047 ft 501 kts 63°
2026-05-04 19:18 49.33666 64.93583 37047 ft 501 kts 62°
2026-05-04 19:19 49.36695 65.03216 37049 ft 501 kts 64°
2026-05-04 19:19 49.39530 65.13000 37050 ft 502 kts 65°
2026-05-04 19:20 49.42305 65.22807 37046 ft 502 kts 65°
2026-05-04 19:20 49.45103 65.32629 37051 ft 502 kts 64°
2026-05-04 19:21 49.47922 65.42445 37052 ft 502 kts 64°
2026-05-04 19:21 49.49820 65.49029 37271 ft 502 kts 64°
2026-05-04 19:21 49.50734 65.52147 37163 ft 503 kts 67°
2026-05-04 19:22 49.52150 65.57062 36989 ft 503 kts 66°
2026-05-04 19:22 49.54985 65.66885 36975 ft 504 kts 67°
2026-05-04 19:23 49.57845 65.76781 36891 ft 504 kts 66°
2026-05-04 19:23 49.60702 65.86619 36871 ft 501 kts 65°
2026-05-04 19:24 49.63550 65.96340 36950 ft 498 kts 65°
2026-05-04 19:24 49.66387 66.06057 36990 ft 497 kts 64°
2026-05-04 19:25 49.69249 66.15771 37013 ft 498 kts 64°
2026-05-04 19:25 49.71867 66.24874 37020 ft 498 kts 65°
2026-05-04 19:26 49.74355 66.33840 37028 ft 498 kts 65°
2026-05-04 19:26 49.77157 66.43629 37036 ft 498 kts 65°
2026-05-04 19:27 49.79948 66.53472 37044 ft 498 kts 65°
2026-05-04 19:27 49.82733 66.63276 37045 ft 498 kts 65°
2026-05-04 19:28 49.85540 66.73126 37052 ft 498 kts 65°
2026-05-04 19:28 49.88343 66.82912 37056 ft 498 kts 65°
2026-05-04 19:29 49.91164 66.92719 37056 ft 499 kts 65°
2026-05-04 19:29 49.93990 67.02525 37061 ft 499 kts 64°
2026-05-04 19:30 49.96740 67.12405 37058 ft 499 kts 67°
2026-05-04 19:30 49.99180 67.22539 37052 ft 499 kts 70°
2026-05-04 19:31 50.01398 67.32748 37059 ft 499 kts 70°
2026-05-04 19:31 50.03601 67.42975 37060 ft 498 kts 70°
2026-05-04 19:32 50.05830 67.53161 37060 ft 498 kts 69°
2026-05-04 19:32 50.08079 67.63361 37060 ft 498 kts 69°
2026-05-04 19:33 50.10337 67.73568 37060 ft 498 kts 70°
2026-05-04 19:33 50.12590 67.83733 37061 ft 498 kts 69°
2026-05-04 19:34 50.14869 67.93978 37058 ft 498 kts 69°
2026-05-04 19:34 50.17144 68.04137 37061 ft 499 kts 69°
2026-05-04 19:35 50.19427 68.14311 37061 ft 499 kts 69°
2026-05-04 19:35 50.21724 68.24485 37055 ft 498 kts 69°
2026-05-04 19:36 50.24094 68.34614 37058 ft 496 kts 66°
2026-05-04 19:36 50.26556 68.44602 37066 ft 497 kts 67°
2026-05-04 19:37 50.29001 68.54736 37063 ft 497 kts 67°
2026-05-04 19:37 50.31414 68.64777 37066 ft 497 kts 67°
2026-05-04 19:38 50.33865 68.74929 37056 ft 498 kts 68°
2026-05-04 19:38 50.36315 68.85046 37056 ft 498 kts 67°
2026-05-04 19:39 50.38764 68.95094 37063 ft 498 kts 67°
2026-05-04 19:39 50.41254 69.05252 37067 ft 499 kts 67°
2026-05-04 19:40 50.43733 69.15326 37057 ft 499 kts 66°
2026-05-04 19:40 50.46236 69.25468 37055 ft 498 kts 66°
2026-05-04 19:41 50.48613 69.35579 37060 ft 498 kts 68°
2026-05-04 19:41 50.50947 69.45861 37065 ft 498 kts 68°
2026-05-04 19:42 50.53281 69.56072 36598 ft 502 kts 68°
2026-05-04 19:42 50.54459 69.61182 35969 ft 503 kts 67°
2026-05-04 19:42 50.55651 69.66338 35356 ft 503 kts 68°
2026-05-04 19:42 50.56856 69.71535 34710 ft 503 kts 68°
2026-05-04 19:43 50.58053 69.76685 34007 ft 502 kts 68°
2026-05-04 19:43 50.59235 69.81769 33318 ft 501 kts 68°
2026-05-04 19:43 50.60437 69.86933 32632 ft 500 kts 68°
2026-05-04 19:43 50.61641 69.92097 31973 ft 499 kts 68°
2026-05-04 19:44 50.62826 69.97168 31296 ft 501 kts 68°
2026-05-04 19:44 50.64049 70.02381 30628 ft 504 kts 68°
2026-05-04 19:44 50.65257 70.07517 29964 ft 506 kts 68°
2026-05-04 19:44 50.66481 70.12718 29275 ft 509 kts 68°
2026-05-04 19:45 50.67711 70.17940 28575 ft 510 kts 68°
2026-05-04 19:45 50.68942 70.23153 27876 ft 510 kts 68°
2026-05-04 19:45 50.70246 70.28346 27204 ft 509 kts 66°
2026-05-04 19:45 50.71603 70.33572 26570 ft 511 kts 66°
2026-05-04 19:46 50.72921 70.38728 25941 ft 514 kts 66°
2026-05-04 19:46 50.74256 70.44005 25310 ft 517 kts 67°
2026-05-04 19:46 50.75580 70.49273 24659 ft 518 kts 67°
2026-05-04 19:46 50.76889 70.54494 24021 ft 513 kts 67°
2026-05-04 19:47 50.78192 70.59683 23399 ft 507 kts 67°
2026-05-04 19:47 50.79474 70.64774 22803 ft 501 kts 67°
2026-05-04 19:47 50.80755 70.69837 22201 ft 496 kts 68°
2026-05-04 19:47 50.82041 70.74912 21605 ft 490 kts 68°
2026-05-04 19:48 50.83334 70.79994 21007 ft 486 kts 67°
2026-05-04 19:48 50.84580 70.84880 20420 ft 482 kts 67°
2026-05-04 19:48 50.85832 70.89771 19842 ft 480 kts 67°
2026-05-04 19:48 50.87088 70.94678 19251 ft 477 kts 67°
2026-05-04 19:49 50.88326 70.99513 18682 ft 474 kts 67°
2026-05-04 19:49 50.89742 71.04179 18107 ft 468 kts 56°
2026-05-04 19:49 50.91746 71.08163 17680 ft 455 kts 41°
2026-05-04 19:49 50.94220 71.11169 17085 ft 447 kts 27°
2026-05-04 19:50 50.97024 71.13125 16473 ft 438 kts 15°
2026-05-04 19:50 50.99900 71.14499 15919 ft 432 kts 13°
2026-05-04 19:50 51.02739 71.15798 15776 ft 418 kts 13°
2026-05-04 19:50 51.05472 71.17152 15616 ft 404 kts 15°
2026-05-04 19:51 51.08069 71.18553 15473 ft 391 kts 16°
2026-05-04 19:51 51.10603 71.19982 15359 ft 378 kts 16°
2026-05-04 19:51 51.13016 71.21365 15229 ft 367 kts 16°
2026-05-04 19:51 51.15398 71.22726 14914 ft 362 kts 16°
2026-05-04 19:52 51.17778 71.24071 14222 ft 365 kts 16°
2026-05-04 19:52 51.20159 71.25446 13642 ft 364 kts 20°
2026-05-04 19:52 51.22351 71.27311 13190 ft 360 kts 33°
2026-05-04 19:52 51.24214 71.29910 12662 ft 355 kts 46°
2026-05-04 19:53 51.25765 71.32919 12139 ft 349 kts 51°
2026-05-04 19:53 51.27193 71.36043 11644 ft 346 kts 52°
2026-05-04 19:53 51.28598 71.39153 11120 ft 346 kts 51°
2026-05-04 19:53 51.30007 71.42158 10592 ft 341 kts 50°
2026-05-04 19:54 51.31453 71.45108 10092 ft 335 kts 49°
2026-05-04 19:54 51.32899 71.47992 9591 ft 329 kts 49°
2026-05-04 19:54 51.34073 71.51060 9251 ft 318 kts 71°
2026-05-04 19:54 51.34386 71.54416 9271 ft 304 kts 96°
2026-05-04 19:55 51.33850 71.57642 8859 ft 298 kts 122°
2026-05-04 19:55 51.32605 71.60120 8468 ft 287 kts 142°
2026-05-04 19:55 51.31070 71.62079 8045 ft 281 kts 147°
2026-05-04 19:55 51.29512 71.63914 7623 ft 278 kts 146°
2026-05-04 19:56 51.27994 71.65836 7231 ft 273 kts 142°
2026-05-04 19:56 51.26606 71.67856 6944 ft 266 kts 139°
2026-05-04 19:56 51.25229 71.69701 6681 ft 253 kts 152°
2026-05-04 19:56 51.23730 71.71024 6423 ft 239 kts 162°
2026-05-04 19:57 51.22199 71.71748 6147 ft 224 kts 178°
2026-05-04 19:57 51.20709 71.71542 5877 ft 214 kts 209°
2026-05-04 19:57 51.19577 71.70113 5598 ft 209 kts 237°
2026-05-04 19:57 51.18507 71.68586 5331 ft 211 kts 203°
2026-05-04 19:58 51.17106 71.67894 4999 ft 217 kts 199°
2026-05-04 19:58 51.15709 71.66984 4359 ft 215 kts 212°
2026-05-04 19:58 51.14538 71.65682 4191 ft 204 kts 219°
2026-05-04 19:58 51.13452 71.64137 3903 ft 214 kts 222°
2026-05-04 19:59 51.12414 71.62498 3663 ft 207 kts 223°
2026-05-04 19:59 51.11424 71.60890 3310 ft 197 kts 223°
2026-05-04 19:59 51.10510 71.59425 3073 ft 177 kts 222°
2026-05-04 19:59 51.09667 71.58106 2878 ft 167 kts 222°
2026-05-04 20:00 51.08846 71.56846 2677 ft 160 kts 222°
2026-05-04 20:00 51.08050 71.55633 2484 ft 160 kts 222°
2026-05-04 20:00 51.07248 71.54416 2259 ft 159 kts 223°
2026-05-04 20:00 51.06447 71.53191 2053 ft 160 kts 224°
2026-05-04 20:01 51.05660 71.51951 1829 ft 161 kts 225°
2026-05-04 20:01 51.04868 71.50700 1609 ft 160 kts 224°
2026-05-04 20:01 51.04069 71.49461 1394 ft 160 kts 224°
2026-05-04 20:01 51.03280 71.48212 1180 ft 160 kts 223°
2026-05-04 20:02 51.02541 71.47063 1173 ft 132 kts 224°
2026-05-04 20:02 51.01972 71.46177 1174 ft 96 kts 225°
2026-05-04 20:02 51.01566 71.45541 1176 ft 72 kts 225°
2026-05-04 20:02 51.01301 71.45128 1175 ft 37 kts 224°
2026-05-04 20:03 51.01182 71.44942 1178 ft 13 kts 227°
2026-05-04 20:03 51.01186 71.44827 1175 ft 13 kts 303°
2026-05-04 20:03 51.01262 71.44712 1170 ft 12 kts 334°
2026-05-04 20:03 51.01350 71.44750 1168 ft 15 kts 43°
2026-05-04 20:04 51.01431 71.44872 1169 ft 17 kts 44°
2026-05-04 20:04 51.01512 71.45001 1171 ft 17 kts 46°
2026-05-04 20:04 51.01603 71.45145 1172 ft 18 kts 44°
2026-05-04 20:04 51.01699 71.45290 1174 ft 19 kts 44°
2026-05-04 20:05 51.01799 71.45448 1175 ft 21 kts 45°
2026-05-04 20:05 51.01907 71.45618 1175 ft 19 kts 45°
2026-05-04 20:05 51.01981 71.45657 1175 ft 9 kts 334°
2026-05-04 20:05 51.02023 71.45603 1175 ft 0 kts 318°
2026-05-04 20:06 51.02023 71.45602 1175 ft 1 kts 318°
2026-05-04 20:06 51.02039 71.45582 1174 ft 4 kts 335°
2026-05-04 20:07 51.02076 71.45598 1174 ft 7 kts 36°
2026-05-04 20:07 51.02122 71.45668 1175 ft 11 kts 45°
2026-05-04 20:07 51.02189 71.45774 1174 ft 16 kts 45°
2026-05-04 20:07 51.02280 71.45916 1173 ft 20 kts 45°
2026-05-04 20:08 51.02370 71.46058 1174 ft 15 kts 45°
2026-05-04 20:08 51.02425 71.46121 1174 ft 5 kts 354°
2026-05-04 20:08 51.02457 71.46082 1174 ft 6 kts 310°
2026-05-04 20:08 51.02461 71.46014 1174 ft 6 kts 244°
2026-05-04 20:09 51.02426 71.45952 1173 ft 5 kts 225°